Regional Weather Roundup
Issued by NWS

Home | Current Version | Previous Version | Text Only | Print | Product List | Glossary On
Versions: 1 2 3 4 5 6 7 8 9 10 11 12 13 14 15 16 17 18 19 20 21 22 23 24 25 26 27 28 29 30 31 32 33 34 35 36 37 38 39 40 41 42 43 44 45 46 47 48 49 50
000
ASUS43 KLSX 310607
RWRMO

WEATHER SUMMARY FOR MISSOURI
NATIONAL WEATHER SERVICE SPRINGFIELD MO
100 AM CDT SUN AUG 31 2014

NOTE: "FAIR" INDICATES FEW OR NO CLOUDS BELOW 12,000 FEET WITH NO
       SIGNIFICANT WEATHER AND/OR OBSTRUCTIONS TO VISIBILITY.
       CURRENT SKY AND/OR WEATHER CONDITIONS ARE NOT AVAILABLE FOR
       CHILLICOTHE AND FARMINGTON.

MOZ001>031-035>038-043-044-053-054-310700-
...NORTHERN AND WESTERN MISSOURI...

CITY           SKY/WX    TMP DP  RH WIND       PRES   REMARKS
KANSAS CTY INT FAIR      72  67  84 SE8       29.90S
6HR MIN TEMP:  70; 6HR MAX TEMP:  83;

KANSAS C DTWN  FAIR      80  66  62 SE7G17    29.89S
6HR MIN TEMP:  76; 6HR MAX TEMP:  87;

LEE`S SUMMIT   FAIR      74  66  76 S5        29.91S
6HR MIN TEMP:  74; 6HR MAX TEMP:  83;

ST JOSEPH      FAIR      67  65  93 CALM      29.88F
6HR MIN TEMP:  65; 6HR MAX TEMP:  83;

CHILLICOTHE      N/A     68  66  93 CALM      29.91F
6HR MIN TEMP:  68; 6HR MAX TEMP:  83;

KIRKSVILLE     FAIR      68  66  94 SE3       29.93S FOG
6HR MIN TEMP:  66; 6HR MAX TEMP:  82;


$$
MOZ066>068-077>081-088>096-101>105-310700-
...SOUTHWEST MISSOURI...

CITY           SKY/WX    TMP DP  RH WIND       PRES   REMARKS
SPRINGFIELD    FAIR      70  67  90 S10       29.95S
6HR MIN TEMP:  69; 6HR MAX TEMP:  74;

JOPLIN         FAIR      74  68  81 S9        29.93F
6HR MIN TEMP:  73; 6HR MAX TEMP:  84;


$$
MOZ032>034-039>042-045>050-055>058-069>072-310700-
...CENTRAL MISSOURI...

CITY           SKY/WX    TMP DP  RH WIND       PRES   REMARKS
COLUMBIA       FAIR      70  68  93 SE6       29.93S
6HR MIN TEMP:  70; 6HR MAX TEMP:  80;

JEFFERSON CITY FAIR      70  68  93 SE5       29.92S
6HR MIN TEMP:  70; 6HR MAX TEMP:  78;

ROLLA          FAIR      70  68  93 S8        29.94F
6HR MIN TEMP:  69; 6HR MAX TEMP:  72;

SEDALIA        FAIR      72  66  81 S7        29.93S
6HR MIN TEMP:  71; 6HR MAX TEMP:  87;

WHITEMAN AFB   FAIR      69  67  93 S6        29.91S
OSAGE BEACH    FAIR      70  66  88 CALM      29.94S

$$
MOZ051-052-059>065-310700-
...EAST CENTRAL MISSOURI...

CITY           SKY/WX    TMP DP  RH WIND       PRES   REMARKS
ST LOUIS INTL  MOCLDY    76  71  85 S8        29.95R
6HR MIN TEMP:  76; 6HR MAX TEMP:  81;

SPIRIT OF STL  FAIR      73  70  90 CALM      29.93S
6HR MIN TEMP:  73; 6HR MAX TEMP:  81;

ST CHARLES     CLOUDY    74  71  91 S5        29.93R
6HR MIN TEMP:  72; 6HR MAX TEMP:  81;


$$
MOZ072>076-082>087-097>100-106>115-310700-
...SOUTH CENTRAL AND SOUTHEAST MISSOURI...

CITY           SKY/WX    TMP DP  RH WIND       PRES   REMARKS
CAPE GIRARDEAU CLOUDY    74  72  93 S7        29.98S
6HR MIN TEMP:  73; 6HR MAX TEMP:  77;

FARMINGTON     MOCLDY    73  70  88 S9        30.00S
6HR MIN TEMP:  73; 6HR MAX TEMP:  79;

POPLAR BLUFF   MOCLDY    74  68  81 S5        29.97F
6HR MIN TEMP:  73; 6HR MAX TEMP:  78;

WEST PLAINS    MOCLDY    72  69  90 S7        29.99F
6HR MIN TEMP:  72; 6HR MAX TEMP:  79;


$$


USA.gov is the U.S. government's official web portal to all federal, state and local government web resources and services.